Wind_Speed
17 17 16 16 16 17 16 15 15 15 12 10 10 10 11 11 10 10 10 9 9 10 10 11 12 13 14 14 14 13 12 13 12 10 11 12 12 11 10 10 10 10 10 10 9 8 8 7 6 7 8 7 7 7 8 8 9 9 9 9 9 9 9
17 17 16 16 16 16 15 15 14 13 12 11 12 12 11 11 11 10 10 9 10 11 12 12 13 14 15 14 14 14 14 15 13 12 12 13 13 11 11 12 11 10 10 10 9 9 9 8 7 8 8 7 7 8 8 8 9 10 10 10 10 10 10
17 17 17 16 15 14 14 13 12 12 12 12 12 12 10 10 10 10 10 10 11 11 12 13 14 15 15 15 16 16 15 16 15 14 14 14 14 13 12 12 10 10 10 9 9 10 10 8 7 7 8 8 7 7 8 9 9 10 10 11 11 11 11
17 18 17 16 15 14 13 12 12 12 11 12 11 9 9 9 10 10 11 11 12 12 12 13 15 16 16 16 17 16 15 16 15 14 15 15 14 13 13 12 11 11 11 11 10 9 8 7 6 6 7 8 8 8 8 8 9 10 10 11 11 11 10
18 18 17 15 14 13 13 13 13 12 11 10 9 9 9 9 10 10 11 11 12 12 12 13 15 16 15 15 17 16 16 16 15 15 16 15 14 14 14 13 12 11 11 12 11 10 8 8 7 5 5 7 8 8 8 8 9 9 9 10 10 9 9
18 18 16 14 13 14 14 14 14 12 11 10 10 10 11 11 11 11 11 11 11 11 12 13 14 15 15 15 16 17 16 15 14 14 14 14 14 14 13 12 11 11 11 11 11 10 10 9 7 5 5 6 7 7 7 8 8 8 8 8 8 8 7
18 17 16 15 14 14 15 15 14 13 12 11 12 13 13 13 12 12 12 12 12 12 12 13 14 16 17 17 17 17 16 14 13 12 12 13 13 12 10 10 11 12 12 11 10 11 11 10 8 7 7 7 7 7 7 7 7 7 7 7 7 7 7
17 17 16 15 15 16 17 17 15 14 13 14 15 14 14 14 14 13 13 13 13 14 14 15 16 16 16 16 16 15 14 13 12 12 12 13 12 11 11 10 11 11 11 10 9 10 9 8 7 7 6 6 7 7 7 7 7 7 7 7 7 7 7
17 17 16 16 16 18 19 18 16 15 15 15 15 15 14 14 14 14 14 14 15 15 15 15 16 16 14 14 15 13 13 13 12 11 12 12 12 11 10 9 8 9 8 8 8 8 8 6 6 5 5 6 7 7 7 7 8 8 8 8 7 7 8
17 17 16 16 18 19 18 17 16 16 16 15 15 14 14 14 14 13 13 14 14 15 14 13 14 14 13 13 13 13 13 12 11 11 11 11 11 9 8 7 6 7 7 6 7 8 8 6 6 6 6 7 7 7 8 8 8 8 8 8 8 8 9
16 16 16 17 18 18 17 17 17 16 16 15 15 14 14 14 14 13 13 14 14 15 14 13 13 13 12 13 12 13 14 12 10 9 9 10 9 8 7 7 6 6 6 7 8 9 9 8 7 7 7 7 6 7 7 7 7 7 7 8 9 9 10
17 16 17 17 17 17 17 17 17 16 15 15 15 15 16 15 15 15 14 14 15 15 14 13 12 12 11 12 12 13 14 13 11 10 10 9 8 8 8 8 7 7 8 8 9 10 10 9 8 7 7 7 7 7 7 7 8 7 8 9 9 10 11
18 17 17 17 17 17 18 17 16 15 14 14 14 15 16 16 16 16 15 15 15 14 13 13 12 12 12 12 13 14 14 14 13 12 12 12 10 9 9 10 9 9 11 11 10 9 9 8 7 6 6 7 7 7 7 8 8 8 8 9 10 10 11
20 18 17 16 16 17 17 17 16 15 14 14 13 14 15 16 16 16 16 15 15 14 14 13 13 13 13 14 14 14 15 15 14 14 14 14 13 12 11 12 11 11 11 11 10 9 9 8 7 6 6 7 7 7 7 8 9 8 8 9 10 11 12
22 20 17 16 16 16 16 16 16 16 15 15 15 15 15 16 16 16 16 15 15 15 14 14 13 13 13 14 14 14 15 15 15 14 14 14 14 13 12 12 11 10 10 10 10 9 9 9 7 7 7 8 8 8 7 8 9 9 10 11 12 13 14
24 22 18 16 16 16 16 17 17 17 17 17 17 17 16 16 16 17 16 16 16 15 15 14 13 12 12 12 12 13 14 15 15 14 14 14 14 13 13 12 11 10 10 10 9 10 10 10 8 7 7 8 9 8 8 9 10 11 12 13 13 14 15
26 25 20 18 17 18 18 18 19 18 18 19 19 19 18 16 16 16 17 17 16 16 16 15 15 14 13 13 12 13 14 15 15 14 14 14 14 14 13 12 11 10 10 10 9 10 10 9 7 7 8 9 9 10 9 10 11 13 14 13 14 14 16
27 26 23 20 19 20 20 20 20 20 20 21 21 21 19 17 16 16 16 17 17 17 17 17 16 16 15 15 15 15 15 16 15 15 15 15 15 15 14 12 11 11 12 11 10 12 11 9 8 8 9 10 11 11 11 12 13 14 14 14 14 15 16
29 28 26 23 22 21 21 21 21 21 21 22 23 23 21 19 18 17 17 17 17 17 17 18 18 18 18 18 17 17 17 17 17 17 17 17 17 16 15 14 13 13 13 12 12 14 14 11 10 10 11 12 13 13 14 14 15 15 15 16 16 16 17
31 29 28 25 24 23 23 22 22 22 22 23 24 25 24 22 21 20 20 19 18 18 19 20 20 20 19 19 19 19 19 19 19 19 19 18 18 18 17 17 16 16 15 14 14 16 15 14 13 13 14 15 15 16 17 17 17 17 17 17 18 19 19
32 30 29 28 26 24 23 22 22 22 22 23 24 26 26 25 23 23 22 20 20 21 21 21 21 20 19 19 20 20 20 20 21 22 21 20 20 19 19 18 18 18 18 17 17 17 17 16 16 17 18 18 18 18 19 20 20 20 20 20 20 21 22
34 32 30 29 27 26 25 23 22 22 24 25 25 26 26 26 25 24 23 23 24 24 23 22 22 21 20 20 21 21 21 22 23 23 22 22 22 21 21 20 20 20 21 20 19 19 19 19 19 20 21 22 21 21 22 22 22 22 22 23 23 23 24
36 34 31 30 29 27 27 25 23 24 25 26 26 26 26 26 25 24 25 27 27 27 26 25 24 23 22 22 22 22 23 23 24 24 23 23 23 23 23 22 23 23 23 22 21 21 22 22 22 23 24 24 25 24 24 25 25 25 25 25 26 26 26
36 36 32 31 30 29 28 27 26 27 27 26 26 27 26 26 26 25 26 28 28 28 28 27 26 25 25 24 23 23 23 24 24 24 24 24 25 25 25 24 25 25 24 24 24 24 24 24 25 25 25 26 27 27 27 27 27 27 28 28 28 29 29
35 37 33 30 30 31 30 30 30 29 29 28 27 27 27 27 26 26 26 27 27 27 28 28 27 27 26 25 24 24 23 23 24 24 25 26 26 26 26 25 26 27 26 26 26 26 26 26 26 26 27 28 28 29 29 29 30 30 30 31 31 31 31
35 37 37 34 32 32 32 32 32 31 30 29 28 27 28 27 26 25 26 27 27 28 28 28 28 28 27 26 25 24 23 23 24 25 25 26 26 26 27 27 28 28 27 27 28 28 27 27 28 28 29 29 30 31 31 32 33 33 33 33 34 34 34
35 38 41 38 33 32 33 34 33 32 31 30 30 29 29 28 27 27 27 28 29 30 30 30 29 28 28 27 25 24 23 24 25 25 26 27 27 27 28 28 29 29 29 29 29 29 29 30 30 31 32 32 32 33 34 34 35 36 36 36 36 36 36
35 37 40 38 33 31 33 34 33 32 31 31 31 32 32 31 30 30 31 31 32 33 32 31 29 28 27 27 26 26 25 26 26 26 27 28 28 29 29 29 30 31 30 30 31 32 32 33 33 34 34 35 35 36 36 37 38 38 38 38 38 38 38
35 35 37 39 35 33 33 33 33 32 32 32 33 32 33 33 33 33 33 34 35 35 34 32 30 29 28 28 28 28 28 28 27 27 28 29 29 30 30 31 31 32 32 32 33 34 35 35 35 36 36 37 38 38 39 39 40 40 39 39 40 40 40
35 34 36 37 35 33 32 32 32 32 33 33 33 32 32 33 33 33 32 32 32 33 32 32 31 30 29 29 29 30 30 29 28 29 30 30 30 31 32 32 33 34 34 34 34 35 36 36 37 37 38 39 40 40 41 42 42 41 40 41 41 42 43
37 37 38 37 36 35 33 31 31 31 31 31 30 29 31 31 31 31 29 28 29 30 31 32 32 31 30 29 30 31 30 29 29 30 31 31 31 32 32 32 33 34 35 35 35 36 37 38 38 39 40 41 41 42 43 43 43 43 43 43 44 45 46
40 41 41 40 39 38 36 34 33 31 31 31 29 30 32 31 30 30 29 28 29 30 31 32 33 32 31 30 30 31 30 30 30 31 32 32 32 32 33 33 33 34 34 35 36 37 38 39 39 40 41 42 43 44 45 45 45 46 46 46 47 48 49
40 40 41 40 40 39 39 38 37 34 33 33 34 35 35 32 30 30 30 30 30 31 31 33 33 33 33 31 31 31 31 31 32 33 33 34 33 33 33 32 33 34 34 36 37 38 39 39 40 41 42 43 44 45 46 46 47 47 47 48 50 51 52
39 40 40 40 40 42 42 42 41 38 37 37 36 37 36 33 31 31 31 31 32 31 32 33 34 34 34 33 33 33 33 33 34 34 34 35 35 35 34 32 31 32 35 37 39 40 41 41 41 41 43 44 45 46 47 48 48 49 50 51 52 54 55
39 40 40 41 41 41 42 43 42 40 38 37 37 37 35 32 31 32 32 33 32 32 32 33 33 34 34 34 35 35 35 35 35 34 34 35 36 37 37 34 33 33 36 38 41 42 43 44 44 44 45 46 47 48 48 48 49 51 53 55 56 57 58
35 34 34 36 38 39 40 41 40 38 37 38 37 34 32 31 32 32 33 33 33 33 33 33 34 34 34 35 35 35 36 36 36 35 35 35 36 38 39 39 39 39 40 41 42 43 44 45 46 47 49 49 50 50 50 52 54 56 58 59 61 61 62
27 27 27 27 29 32 35 38 37 36 36 36 35 32 31 31 31 31 32 32 33 34 34 35 35 35 35 34 34 35 35 36 36 36 36 37 38 39 41 42 43 43 44 45 47 48 48 49 49 50 51 52 53 55 56 57 59 60 60 62 63 64 65
Wind_Direction
268 266 269 265 258 255 251 248 248 249 245 239 234 226 216 216 215 210 212 216 222 227 234 240 242 246 248 251 258 261 261 260 255 250 254 257 259 257 248 242 246 251 250 249 253 258 259 256 250 251 255 259 265 270 271 272 275 280 285 289 290 291 293
270 268 268 262 256 254 250 244 243 242 235 227 225 222 218 220 218 212 213 215 221 228 232 238 241 244 247 253 257 259 261 261 259 259 261 261 259 253 244 241 245 250 249 247 249 254 255 252 250 254 257 262 269 272 273 277 281 286 289 290 290 292 294
273 270 266 259 253 249 247 242 236 232 228 224 222 221 219 222 224 220 219 218 222 228 231 237 245 248 248 253 258 259 261 264 262 262 262 261 261 258 247 239 245 253 247 243 247 251 253 253 250 253 256 259 267 273 276 280 284 286 289 291 294 297 300
273 269 265 258 250 244 242 239 236 230 227 229 226 223 225 228 228 226 225 224 223 227 231 237 249 254 252 254 261 262 262 264 265 262 258 256 257 253 240 239 252 252 241 240 245 250 254 251 249 256 261 259 262 273 278 281 285 288 292 297 300 302 303
275 269 266 259 247 243 242 239 236 232 233 243 245 244 246 242 238 232 229 229 227 230 233 239 250 257 256 256 261 264 263 263 265 263 258 252 246 241 240 247 251 242 238 243 246 251 253 249 247 253 262 261 261 271 280 284 289 293 298 302 302 302 304
275 271 267 260 250 245 243 239 238 242 248 256 257 256 253 249 246 239 233 233 234 235 237 244 253 260 263 263 263 264 264 263 262 261 260 255 248 243 243 245 240 235 243 248 248 251 253 253 250 241 253 266 265 272 284 290 294 299 302 303 302 303 306
272 269 263 259 255 252 250 248 249 253 258 258 256 254 250 247 245 242 240 239 242 245 247 251 256 260 263 263 259 261 264 262 255 255 258 255 249 244 239 239 244 247 250 252 254 255 257 261 256 243 256 273 277 282 291 296 300 304 306 303 302 304 309
266 263 258 254 254 256 256 257 257 257 258 257 256 253 250 249 246 243 242 241 247 253 256 257 257 257 258 258 257 258 261 261 255 253 255 250 245 243 243 246 253 253 250 252 258 260 261 263 255 245 252 269 279 290 297 302 306 307 306 303 302 307 313
262 258 254 251 252 255 256 256 258 259 260 260 259 257 254 252 247 244 243 244 249 255 257 257 255 255 253 254 259 259 258 261 257 250 248 247 244 243 245 249 246 245 248 249 252 260 263 260 252 245 249 265 277 288 295 300 302 302 300 299 302 309 315
258 255 252 249 250 251 252 254 257 259 260 260 260 259 255 252 249 247 248 249 252 253 253 248 246 248 248 250 258 261 260 256 245 240 243 247 248 246 249 247 235 238 246 241 243 253 256 258 256 250 257 268 277 287 291 293 292 292 296 299 304 311 313
254 254 251 248 248 250 251 255 256 256 256 255 255 255 254 253 251 250 250 252 253 250 247 241 240 243 246 250 254 254 253 248 239 241 244 243 246 250 255 251 243 248 244 231 240 249 251 256 257 257 269 276 277 282 285 286 287 291 297 300 305 309 311
251 249 247 246 247 249 251 253 252 252 253 253 254 254 254 254 254 252 252 253 252 246 240 238 242 246 247 251 252 249 250 250 249 250 249 245 245 249 256 259 262 262 249 243 250 255 255 258 258 262 272 274 274 281 285 285 287 292 295 298 304 309 312
252 245 243 245 247 247 248 249 249 250 252 253 255 256 257 257 255 254 252 248 244 238 235 235 240 248 250 250 251 251 254 256 254 252 256 261 259 253 256 262 262 255 251 254 257 256 256 258 258 259 265 271 276 282 285 283 283 287 291 297 306 313 317
254 246 241 243 246 245 246 247 249 250 250 251 254 255 256 256 253 251 247 239 233 230 232 235 237 243 247 246 247 249 252 254 254 253 259 264 264 258 256 255 251 248 251 254 252 251 256 258 258 261 265 270 272 273 277 279 284 290 296 305 314 319 320
258 251 243 242 243 241 243 247 249 250 248 248 250 251 252 252 249 246 239 232 228 230 232 233 234 236 239 241 242 244 248 252 253 255 257 260 259 256 252 248 242 241 245 247 245 246 250 252 251 252 256 262 267 274 281 286 292 299 303 311 316 317 317
262 256 247 242 240 238 242 248 251 252 250 247 247 249 249 249 247 244 239 234 232 232 229 227 226 227 230 235 239 242 247 250 252 252 252 254 255 253 249 244 238 237 240 241 241 240 242 247 248 246 253 265 277 287 290 291 297 303 305 309 312 312 313
262 256 249 242 238 237 240 247 252 253 251 248 247 248 248 248 246 245 242 240 236 232 228 224 222 223 228 234 241 245 246 247 249 249 248 249 249 248 248 247 245 248 248 245 245 247 248 254 257 255 260 270 281 290 291 291 296 298 299 303 305 305 304
258 252 249 242 236 236 239 246 253 255 255 252 249 248 247 246 246 245 244 241 235 230 227 227 228 232 238 243 246 248 248 247 246 245 244 242 241 243 247 251 256 261 260 256 259 263 261 258 258 261 265 271 278 285 287 287 288 288 291 294 296 295 294
253 250 250 242 236 238 241 247 252 254 256 254 250 248 246 245 244 243 243 239 233 229 229 233 237 242 248 252 253 253 252 251 248 245 244 242 243 246 247 251 257 264 267 267 269 271 268 261 259 263 266 269 275 279 280 280 280 281 284 286 287 288 288
243 247 249 241 237 240 242 246 251 254 257 255 251 247 245 245 244 241 239 237 235 234 233 236 241 245 250 254 256 255 254 253 252 250 248 247 249 252 253 254 258 264 268 268 268 270 269 266 266 268 269 270 274 275 275 276 277 278 280 280 281 284 285
235 244 248 241 238 241 242 245 250 254 257 255 251 246 243 244 244 243 240 237 236 236 234 237 241 245 250 253 254 254 253 252 251 251 251 250 250 252 254 256 258 260 263 264 264 266 267 267 268 271 272 271 272 273 274 275 276 277 279 279 279 281 284
237 242 243 240 241 241 240 243 246 250 253 253 250 245 242 243 244 244 242 237 236 237 236 238 242 244 246 249 251 252 252 251 250 250 250 250 251 252 252 253 254 255 258 261 264 265 267 269 269 270 271 271 271 272 273 274 275 276 278 279 280 282 284
240 238 237 239 242 240 238 238 240 243 247 249 249 245 241 241 242 242 240 237 238 239 239 240 241 242 244 246 248 250 251 250 249 248 249 249 251 252 251 251 252 253 257 261 264 265 266 268 270 270 271 272 273 272 272 273 274 275 275 276 278 280 281
237 231 233 238 242 240 238 236 235 238 243 245 246 244 241 241 240 238 238 238 239 240 241 242 241 241 243 244 246 248 249 251 250 248 248 248 249 251 252 252 255 257 259 262 264 265 267 269 270 272 272 273 273 273 272 272 272 272 273 274 275 277 278
228 226 233 242 244 242 239 236 235 237 240 242 243 242 241 241 240 239 240 241 241 242 243 244 244 243 243 243 244 246 247 249 249 248 248 249 250 253 254 255 257 260 263 264 266 268 269 271 271 271 271 272 272 271 271 271 271 270 271 272 273 275 277
229 233 240 243 245 243 240 238 237 237 238 240 241 241 240 240 240 240 242 243 243 243 244 246 247 246 245 243 244 246 247 247 247 248 249 251 252 254 255 257 259 262 265 266 268 269 270 270 270 269 269 269 269 269 269 269 269 269 270 271 272 274 276
241 244 243 241 244 243 238 237 237 236 238 239 238 239 239 239 239 241 244 246 246 245 245 246 247 247 247 246 246 248 247 246 246 246 248 251 252 254 256 258 261 263 265 265 267 268 268 268 268 267 268 268 268 268 268 268 268 268 269 270 271 272 274
246 245 239 237 243 242 237 237 238 236 237 238 238 239 240 241 242 245 248 249 247 245 244 244 245 245 246 246 247 247 245 244 244 244 246 248 249 252 254 256 258 261 263 264 265 265 265 265 266 266 267 267 268 268 268 268 267 268 268 270 271 273 275
244 242 236 237 243 243 238 237 238 237 236 236 238 241 243 245 246 247 249 250 247 243 241 241 240 241 243 243 244 244 243 243 244 244 244 245 246 249 251 252 254 257 259 261 262 263 264 264 265 266 267 267 268 268 268 268 268 269 270 272 274 276 279
238 237 235 238 245 247 243 238 236 237 236 235 237 242 246 249 248 246 247 247 242 237 236 237 236 237 240 241 241 242 243 244 245 246 246 247 248 249 250 251 252 254 256 257 259 261 263 264 265 266 267 267 268 269 269 270 270 271 272 274 276 278 281
233 233 235 240 245 248 246 242 241 240 235 232 235 241 248 250 247 242 242 239 234 232 234 235 234 235 237 238 240 242 244 246 248 249 250 251 251 252 253 254 255 256 257 259 260 261 262 263 265 266 266 267 267 268 269 270 271 272 273 275 277 279 280
227 230 234 240 245 247 247 247 250 246 235 231 238 245 246 245 240 237 237 236 234 235 236 234 233 234 236 238 241 244 246 249 250 251 253 254 254 256 258 259 261 263 265 265 264 265 264 265 266 267 268 269 269 270 270 271 271 272 273 275 277 279 281
226 230 235 239 243 247 248 249 252 249 242 244 249 246 241 237 237 237 237 237 237 239 238 235 234 234 237 242 246 248 251 251 252 253 256 257 258 259 261 264 266 268 269 270 270 271 271 271 272 273 273 274 275 275 275 274 274 275 276 278 279 281 282
227 232 234 236 238 242 246 249 252 253 252 251 247 237 231 232 236 237 238 238 237 237 237 235 235 237 241 245 248 250 252 253 255 257 259 261 261 260 262 267 270 270 271 273 273 274 275 276 277 278 279 279 279 279 278 278 278 279 280 281 282 282 282
228 230 232 234 236 239 242 246 250 252 248 240 231 225 226 231 235 237 238 238 237 236 237 237 239 241 244 247 250 252 253 255 257 259 260 261 262 261 261 264 269 271 271 273 274 274 276 278 279 280 281 282 282 281 280 279 280 281 282 283 283 283 283
232 234 235 238 240 241 241 240 241 241 236 227 222 223 229 234 236 237 238 237 237 238 240 242 244 246 248 250 252 255 257 259 260 261 262 263 265 266 266 266 268 270 271 272 274 275 276 278 280 281 282 282 282 281 280 280 281 282 282 282 282 282 282
230 235 238 240 240 238 235 233 233 233 230 224 224 229 234 236 237 237 237 238 240 242 243 246 249 250 251 253 256 258 260 260 259 260 262 263 266 268 270 270 270 272 273 275 276 277 277 278 280 281 281 281 282 281 281 281 282 282 282 282 282 281 281
Height
5783 5783 5784 5785 5784 5785 5787 5787 5788 5789 5790 5791 5792 5793 5794 5795 5795 5796 5796 5796 5797 5798 5799 5799 5799 5798 5798 5798 5797 5798 5800 5799 5798 5801 5803 5803 5804 5805 5805 5806 5806 5807 5808 5808 5809 5809 5809 5810 5810 5811 5811 5811 5811 5811 5811 5811 5812 5812 5813 5813 5813 5813 5813
5781 5782 5783 5783 5783 5783 5785 5786 5787 5788 5789 5790 5792 5792 5793 5793 5794 5794 5795 5795 5796 5797 5797 5797 5797 5796 5796 5797 5797 5798 5798 5798 5798 5799 5801 5801 5802 5802 5803 5804 5805 5806 5807 5807 5808 5808 5808 5808 5809 5809 5810 5810 5810 5810 5810 5810 5811 5811 5812 5812 5812 5812 5812
5780 5780 5781 5781 5782 5782 5783 5784 5786 5787 5788 5790 5790 5791 5791 5792 5792 5793 5793 5794 5795 5795 5795 5795 5795 5794 5795 5795 5795 5796 5797 5797 5798 5798 5799 5799 5800 5800 5801 5802 5803 5805 5805 5806 5806 5806 5806 5807 5807 5808 5808 5809 5809 5809 5809 5809 5810 5810 5811 5811 5811 5811 5811
5778 5778 5779 5780 5781 5781 5782 5782 5784 5786 5787 5788 5788 5789 5789 5790 5791 5792 5792 5793 5793 5793 5793 5794 5793 5792 5794 5794 5793 5794 5795 5796 5796 5797 5797 5798 5798 5799 5800 5801 5802 5803 5804 5804 5805 5805 5805 5806 5806 5807 5807 5807 5808 5808 5808 5808 5808 5809 5809 5809 5809 5809 5809
5775 5776 5777 5778 5779 5780 5780 5781 5782 5784 5785 5786 5786 5787 5788 5789 5789 5790 5791 5791 5791 5792 5792 5792 5791 5791 5792 5793 5792 5792 5793 5794 5795 5795 5795 5796 5797 5798 5799 5800 5801 5802 5802 5803 5803 5804 5804 5805 5805 5806 5806 5806 5807 5807 5807 5807 5807 5808 5808 5808 5808 5808 5808
5774 5774 5774 5776 5777 5778 5779 5780 5781 5782 5783 5784 5785 5786 5787 5787 5788 5788 5789 5790 5790 5791 5791 5791 5790 5789 5790 5791 5791 5791 5791 5792 5793 5793 5794 5794 5795 5797 5798 5798 5799 5800 5801 5801 5801 5802 5803 5804 5804 5805 5805 5805 5805 5805 5805 5806 5806 5806 5806 5807 5807 5807 5807
5772 5772 5773 5773 5774 5776 5777 5778 5778 5779 5780 5782 5783 5784 5785 5786 5787 5787 5787 5788 5789 5789 5789 5789 5789 5789 5789 5789 5789 5789 5789 5790 5791 5792 5792 5792 5793 5795 5796 5797 5797 5798 5799 5799 5800 5800 5801 5802 5802 5803 5803 5803 5804 5804 5804 5804 5804 5805 5805 5805 5806 5806 5805
5771 5772 5772 5772 5773 5774 5775 5776 5776 5777 5778 5780 5781 5782 5784 5784 5785 5785 5785 5785 5786 5787 5787 5787 5787 5787 5787 5787 5787 5788 5788 5788 5789 5790 5790 5790 5791 5793 5794 5795 5796 5796 5797 5798 5798 5799 5799 5800 5800 5802 5802 5802 5802 5802 5802 5803 5803 5803 5804 5804 5805 5804 5804
5770 5771 5771 5772 5772 5773 5773 5773 5773 5775 5776 5778 5779 5781 5782 5782 5783 5783 5783 5784 5784 5784 5785 5786 5785 5785 5785 5785 5784 5785 5787 5786 5786 5787 5788 5789 5790 5791 5792 5794 5794 5794 5795 5796 5797 5797 5797 5798 5799 5800 5801 5801 5801 5801 5801 5802 5802 5803 5803 5803 5803 5803 5803
5769 5770 5770 5771 5772 5772 5772 5772 5772 5773 5775 5776 5778 5778 5779 5780 5781 5781 5782 5782 5782 5783 5783 5784 5784 5784 5784 5784 5784 5784 5784 5784 5785 5786 5787 5788 5788 5790 5791 5792 5793 5794 5794 5795 5795 5796 5796 5797 5798 5799 5800 5800 5800 5800 5801 5801 5802 5802 5802 5802 5802 5802 5802
5767 5768 5769 5770 5771 5771 5771 5771 5771 5772 5774 5775 5776 5777 5777 5778 5779 5779 5780 5780 5781 5781 5781 5782 5782 5783 5784 5783 5784 5784 5782 5783 5784 5785 5786 5787 5788 5788 5789 5790 5791 5792 5792 5793 5794 5795 5796 5797 5797 5798 5798 5798 5799 5799 5799 5800 5800 5800 5800 5800 5800 5800 5800
5765 5766 5767 5768 5769 5769 5769 5769 5770 5771 5772 5773 5774 5775 5775 5776 5776 5777 5778 5779 5779 5779 5780 5780 5781 5781 5782 5782 5783 5783 5782 5782 5784 5784 5784 5786 5787 5787 5788 5788 5789 5789 5790 5792 5793 5794 5794 5795 5796 5797 5797 5797 5797 5797 5798 5798 5798 5798 5799 5799 5799 5799 5798
5764 5764 5765 5766 5767 5767 5768 5768 5769 5770 5770 5771 5772 5772 5773 5774 5774 5775 5776 5777 5777 5778 5778 5779 5779 5780 5780 5781 5781 5782 5781 5781 5782 5783 5783 5784 5785 5787 5787 5787 5788 5788 5789 5790 5791 5792 5792 5793 5794 5795 5795 5795 5795 5795 5796 5796 5796 5797 5797 5797 5797 5797 5797
5762 5762 5762 5763 5765 5766 5766 5766 5767 5768 5769 5769 5770 5771 5771 5772 5773 5773 5774 5775 5775 5776 5776 5777 5778 5778 5779 5780 5780 5781 5781 5781 5781 5782 5782 5782 5783 5785 5786 5787 5787 5788 5788 5789 5789 5790 5790 5791 5792 5793 5793 5793 5793 5794 5794 5795 5795 5794 5795 5795 5795 5795 5795
5760 5760 5760 5760 5762 5763 5764 5765 5766 5766 5767 5768 5769 5769 5770 5771 5771 5772 5773 5773 5774 5774 5775 5775 5775 5776 5777 5778 5779 5780 5780 5780 5781 5781 5781 5782 5782 5783 5784 5785 5786 5786 5787 5787 5788 5788 5789 5790 5791 5791 5791 5791 5791 5792 5793 5793 5792 5792 5793 5793 5793 5793 5793
5757 5757 5757 5757 5759 5760 5761 5763 5764 5765 5766 5766 5767 5768 5769 5769 5770 5771 5771 5772 5772 5773 5773 5773 5774 5775 5775 5776 5777 5778 5779 5779 5779 5780 5780 5780 5781 5781 5782 5783 5784 5785 5785 5786 5787 5787 5787 5788 5789 5789 5789 5789 5789 5790 5791 5791 5790 5791 5791 5791 5791 5791 5791
5754 5754 5755 5755 5756 5758 5759 5761 5762 5763 5764 5764 5765 5766 5767 5768 5769 5769 5770 5770 5771 5771 5772 5772 5773 5773 5774 5775 5776 5777 5778 5778 5778 5778 5779 5779 5779 5779 5780 5781 5782 5783 5783 5784 5784 5785 5785 5786 5786 5786 5787 5787 5787 5788 5789 5789 5789 5789 5789 5789 5789 5789 5789
5752 5753 5753 5754 5754 5755 5757 5758 5759 5760 5761 5762 5764 5764 5765 5767 5767 5768 5768 5769 5769 5770 5771 5771 5772 5772 5773 5773 5774 5775 5776 5777 5777 5777 5777 5778 5778 5778 5779 5779 5779 5780 5781 5781 5782 5782 5783 5783 5784 5784 5785 5785 5785 5786 5786 5787 5787 5787 5787 5787 5787 5787 5787
5750 5751 5751 5752 5753 5753 5754 5755 5756 5758 5759 5760 5761 5762 5763 5764 5765 5766 5766 5767 5768 5769 5770 5771 5771 5771 5772 5772 5772 5773 5774 5774 5775 5776 5776 5776 5776 5776 5777 5778 5778 5778 5779 5779 5780 5780 5780 5781 5782 5783 5783 5783 5783 5783 5784 5784 5784 5784 5784 5784 5784 5784 5784
5746 5748 5749 5750 5750 5751 5751 5752 5754 5755 5757 5758 5759 5760 5761 5762 5763 5764 5764 5766 5767 5768 5768 5768 5768 5769 5769 5770 5770 5771 5772 5772 5773 5773 5774 5774 5774 5775 5775 5776 5777 5777 5777 5778 5778 5778 5778 5779 5780 5781 5781 5781 5781 5781 5781 5781 5781 5781 5782 5782 5781 5781 5781
5742 5744 5746 5747 5747 5748 5749 5750 5751 5753 5754 5755 5756 5756 5757 5759 5760 5761 5763 5765 5765 5765 5765 5766 5766 5767 5768 5768 5769 5769 5770 5770 5771 5771 5772 5773 5773 5773 5774 5775 5776 5776 5775 5776 5776 5776 5776 5777 5778 5778 5779 5779 5779 5779 5778 5779 5779 5779 5779 5779 5778 5778 5777
5737 5740 5742 5743 5744 5745 5746 5747 5749 5750 5750 5751 5752 5753 5754 5756 5757 5759 5761 5762 5762 5762 5763 5764 5764 5765 5766 5766 5766 5767 5767 5768 5769 5769 5770 5770 5771 5771 5772 5773 5774 5774 5773 5774 5774 5774 5774 5775 5776 5776 5776 5776 5776 5777 5776 5776 5777 5776 5776 5775 5775 5775 5774
5733 5736 5737 5739 5741 5742 5743 5744 5746 5746 5747 5748 5749 5750 5752 5753 5755 5757 5758 5758 5758 5759 5761 5761 5762 5762 5763 5763 5764 5764 5765 5766 5766 5767 5768 5768 5768 5769 5770 5770 5771 5771 5772 5772 5772 5773 5773 5773 5773 5774 5774 5773 5774 5774 5774 5774 5774 5773 5773 5772 5771 5771 5771
5730 5732 5734 5735 5737 5739 5739 5741 5742 5742 5743 5745 5746 5747 5749 5750 5752 5753 5753 5754 5756 5757 5757 5758 5759 5760 5760 5761 5761 5762 5762 5763 5764 5765 5765 5765 5765 5766 5767 5768 5768 5768 5769 5770 5770 5771 5771 5771 5771 5771 5771 5771 5770 5771 5771 5770 5770 5770 5769 5769 5768 5767 5767
5726 5728 5730 5731 5733 5735 5735 5737 5738 5739 5741 5742 5743 5744 5746 5747 5749 5750 5750 5751 5753 5754 5754 5755 5756 5757 5757 5758 5759 5759 5760 5761 5761 5762 5762 5763 5763 5763 5764 5765 5765 5765 5766 5767 5767 5768 5768 5769 5768 5768 5768 5768 5767 5767 5767 5767 5767 5766 5766 5765 5764 5764 5763
5722 5725 5726 5728 5729 5730 5731 5733 5735 5736 5738 5739 5740 5741 5742 5744 5745 5747 5748 5749 5750 5751 5752 5752 5753 5754 5754 5755 5756 5756 5758 5758 5758 5759 5759 5760 5761 5761 5761 5762 5762 5762 5763 5764 5764 5765 5765 5765 5765 5765 5764 5764 5763 5763 5763 5763 5763 5762 5762 5762 5761 5760 5760
5719 5720 5721 5723 5725 5726 5727 5729 5731 5733 5735 5737 5737 5738 5739 5740 5742 5743 5744 5745 5746 5747 5748 5749 5750 5751 5751 5752 5753 5753 5755 5755 5755 5756 5756 5757 5757 5758 5758 5759 5759 5760 5760 5760 5760 5761 5761 5761 5761 5760 5760 5760 5760 5759 5759 5759 5759 5758 5758 5758 5757 5757 5756
5714 5715 5716 5719 5721 5722 5723 5725 5727 5730 5732 5733 5734 5734 5735 5737 5739 5740 5741 5742 5742 5743 5744 5745 5746 5747 5748 5749 5749 5750 5751 5751 5752 5753 5753 5753 5754 5754 5755 5756 5756 5756 5757 5757 5757 5757 5757 5757 5756 5756 5756 5756 5756 5756 5755 5755 5754 5754 5754 5753 5753 5752 5751
5709 5710 5712 5714 5716 5717 5719 5722 5724 5727 5728 5729 5730 5730 5731 5733 5734 5736 5736 5737 5738 5738 5740 5741 5743 5744 5744 5745 5746 5746 5747 5748 5748 5749 5749 5749 5750 5751 5751 5752 5753 5753 5753 5754 5753 5753 5752 5752 5752 5752 5752 5752 5751 5751 5751 5750 5749 5749 5749 5749 5748 5748 5747
5705 5706 5708 5710 5712 5714 5716 5718 5721 5723 5724 5725 5726 5727 5728 5728 5730 5731 5731 5732 5733 5734 5736 5737 5738 5740 5740 5741 5742 5743 5743 5744 5745 5746 5745 5746 5747 5747 5747 5748 5748 5748 5748 5749 5749 5749 5748 5748 5748 5747 5747 5747 5746 5746 5745 5745 5745 5745 5745 5744 5743 5742 5741
5702 5703 5704 5706 5708 5710 5712 5715 5717 5719 5720 5721 5722 5723 5724 5724 5725 5726 5727 5728 5729 5730 5732 5733 5734 5736 5736 5737 5738 5739 5740 5741 5742 5742 5742 5742 5743 5743 5743 5744 5744 5744 5744 5745 5744 5744 5743 5742 5742 5742 5741 5741 5741 5740 5740 5740 5739 5740 5739 5739 5738 5737 5736
5698 5700 5702 5703 5704 5706 5708 5711 5713 5715 5716 5718 5719 5719 5720 5721 5722 5723 5724 5725 5726 5727 5728 5729 5730 5732 5733 5734 5735 5735 5736 5737 5737 5737 5737 5737 5738 5739 5739 5740 5740 5740 5740 5740 5739 5738 5738 5737 5737 5736 5736 5736 5735 5735 5735 5734 5734 5734 5733 5733 5732 5731 5730
5694 5696 5698 5699 5701 5702 5704 5707 5709 5711 5712 5713 5714 5715 5716 5717 5718 5719 5720 5721 5722 5723 5725 5726 5727 5728 5729 5730 5731 5731 5732 5733 5733 5732 5732 5733 5734 5735 5735 5735 5736 5735 5735 5734 5734 5733 5733 5733 5732 5731 5731 5731 5730 5730 5729 5729 5728 5728 5727 5727 5726 5725 5723
5691 5693 5694 5696 5698 5699 5701 5702 5704 5706 5707 5708 5709 5710 5711 5713 5714 5715 5716 5717 5718 5719 5721 5722 5723 5724 5725 5726 5726 5727 5727 5728 5728 5728 5728 5728 5728 5730 5731 5731 5730 5730 5729 5728 5728 5728 5728 5728 5727 5726 5726 5725 5724 5724 5724 5723 5722 5721 5721 5720 5719 5718 5716
5688 5689 5691 5692 5694 5695 5697 5698 5699 5701 5702 5703 5703 5705 5707 5709 5710 5711 5712 5713 5714 5716 5717 5718 5719 5720 5721 5721 5722 5722 5723 5723 5724 5724 5724 5723 5723 5724 5726 5726 5725 5724 5724 5723 5723 5722 5722 5722 5721 5720 5720 5719 5718 5718 5718 5717 5716 5714 5713 5712 5711 5710 5708
5684 5686 5687 5688 5690 5691 5692 5693 5694 5695 5697 5698 5699 5701 5703 5704 5706 5707 5708 5709 5711 5712 5713 5714 5715 5716 5717 5717 5718 5718 5718 5718 5719 5719 5719 5719 5719 5719 5720 5720 5720 5719 5719 5718 5718 5717 5717 5717 5716 5715 5714 5712 5712 5711 5711 5710 5708 5707 5706 5704 5703 5702 5700
5682 5683 5684 5685 5686 5687 5688 5688 5689 5691 5693 5694 5696 5697 5699 5700 5702 5703 5705 5706 5707 5708 5710 5711 5711 5712 5713 5713 5713 5714 5714 5714 5714 5715 5715 5715 5715 5714 5714 5714 5714 5714 5714 5713 5712 5711 5711 5711 5710 5709 5707 5706 5705 5704 5703 5701 5700 5699 5697 5696 5694 5693 5691